TIARET current weather conditions

sailwx.info

Wind from 230 at 8 knots

Air temperature 7.0° C
Visibility: greater than 5.4 NM
Dewpoint 7.0° C

Last reported at 2019-Nov-18 00:00 UTC.
Time now 2019-Nov-18 01:30 UTC

Location: N 35°20' E 001°28'.
View on Google Maps.

See reports from other nearby stations

  
Tides and Currents Weather Stations Pressure Air Temp Water Temp Dewpoint Dewpoint Depression Visibility Wind Speed Wind Dir Waves Ship Positions
date/time (UTC)wind fromknots sea level pressurealtimeterstation pressurevisibilityair tempwater tempwave heightnotes
2019-Nov-18 01:00 240 7 5.4 7.0
2019-Nov-18 00:00 230 8 5.4 7.0
2019-Nov-17 23:00 230 15 5.4 7.0
2019-Nov-17 22:00 160 4 5.4 6.0
2019-Nov-17 21:00 170 2 5.4 6.0
2019-Nov-17 20:00 230 7 5.4 5.0
2019-Nov-17 19:00 220 5 5.4 5.0
2019-Nov-17 18:00 280 2 5.4 6.0
2019-Nov-17 17:00 260 7 5.4 7.0
2019-Nov-17 16:00 260 13 5.4 9.0
2019-Nov-17 15:00 260 13 5.4 9.0
2019-Nov-17 14:00 260 15 5.4 9.0
2019-Nov-17 13:00 270 13 5.4 9.0
2019-Nov-17 12:00 260 17 5.4 8.0
2019-Nov-17 11:00 240 13 5.4 6.0
2019-Nov-17 10:00 240 15 5.4 6.0
2019-Nov-17 09:00 240 12 5.4 5.0
2019-Nov-17 08:00 250 11 5.4 4.0
2019-Nov-17 07:00 230 8 5.4 3.0
2019-Nov-17 06:00 230 8 5.4 4.0
2019-Nov-17 05:00 260 11 5.4 4.0
2019-Nov-17 04:00 260 9 5.4 4.0
2019-Nov-17 03:00 260 13 5.4 4.0
2019-Nov-17 02:00 260 13 5.4 3.0
2019-Nov-17 01:00 270 14 5.4 4.0
2019-Nov-17 00:00 260 15 5.4 4.0
2019-Nov-16 23:00 260 14 5.4 4.0
2019-Nov-16 22:00 270 17 gusting 28 5.4 4.0
2019-Nov-16 21:00 270 18 gusting 27 5.4 4.0
2019-Nov-16 20:00 270 14 5.4 4.0
2019-Nov-16 19:40 270 14 5.4 4.0
2019-Nov-16 19:00 280 13 5.4 4.0
2019-Nov-16 18:00 280 18 gusting 27 5.4 4.0
2019-Nov-16 17:00 280 17 gusting 27 5.4 4.0
2019-Nov-16 16:00 280 20 gusting 31 5.4 4.0
2019-Nov-16 15:00 280 14 4.3 4.0
2019-Nov-16 14:00 070 8 4.3 2.0
2019-Nov-16 13:00 280 12 3.2 2.0 Light drizzle snow.
2019-Nov-16 12:27 250 11 3.2 2.0 Light snow.
2019-Nov-16 12:00 250 11 4.3 2.0
2019-Nov-16 11:00 280 12 3.2 1.0 Light snow.
2019-Nov-16 10:00 260 17 4.3 3.0
2019-Nov-16 09:00 260 14 3.2 2.0
2019-Nov-16 08:00 260 13 3.2 2.0
2019-Nov-16 07:00 250 5 5.4 2.0
2019-Nov-16 06:00 230 14 5.4 2.0 Snow.
2019-Nov-16 05:50 230 14 5.4 2.0 Snow.
2019-Nov-16 05:00 230 9 5.4 2.0
2019-Nov-16 04:00 230 9 5.4 2.0
2019-Nov-16 03:00 230 5 5.4 2.0
2019-Nov-16 02:00 220 6 5.4 2.0
2019-Nov-16 01:00 210 7 5.4 2.0